Location: *
(51.5000°N, 0.1100°W)
Time: 20:10:49
(UTC+00:00)

Cosmos 2219 Rocket - Pass Details

Date: 25 May 2024
Orbit: 826 x 847 km, 71.0° (Epoch: 23 June)

Event Time Altitude Azimuth Distance (km) Brightness Sun altitude
Rises 01:14:08 0° 331° (NNW) 3,398 6.0 -15.6°
Reaches altitude 10° 01:16:45 10° 339° (NNW) 2,464 5.4 -15.4°
Maximum altitude 01:22:01 38° 47° (NE) 1,261 3.7 -15.2°
Drops below altitude 10° 01:27:16 10° 116° (ESE) 2,464 4.6 -14.9°
Sets 01:29:53 0° 124° (SE) 3,397 5.2 -14.7°
